STARLINK-36359

Last updated on Fri Mar 27 2026 00:02:06 GMT+0000 (Coordinated Universal Time)

1 67979U 26038U 26085.50002314 .00052798 00000+0 15865-2 0 9990 2 67979 97.2841 96.3919 0001388 111.5946 0.4549 15.34232494 5908
UTC large
Height (km)
Speed (km/s)
/
Latitude / Longitude
Inclination (degrees)
Orbital Period (minutes)
Azimuth
Elevation
Range (km)
Doppler Factor

Next 0 passes for location: London (51.5072 / 0.1276)

Sorry there are no passes over London.